Location: Newark
(9.3150°S, 75.0000°W)
Time: 20:00:01
(UTC+00:00)

X-37B - Visible Passes

Search period start: 23 September 2020 00:00
Search period end: 03 October 2020 00:00
Orbit: 386 x 387 km, 45.0° (Epoch: 18 September)

Date Brightness Start Highest point End Pass type
(mag) Time Alt. Az. Time Alt. Az. Time Alt. Az.
24 Sep 1.4 00:19:09 10° SW 00:21:50 51° W 00:21:50 51° W visible
24 Sep 1.1 23:20:43 10° SSW 23:23:45 41° SE 23:26:46 10° ENE visible
25 Sep 3.1 23:59:14 10° W 00:01:39 20° NW 00:04:03 10° N visible
29 Sep 3.2 10:14:30 10° N 10:16:56 20° NE 10:19:22 10° E visible
01 Oct 1.0 09:53:33 13° NNW 09:56:17 60° NE 09:59:27 10° SE visible
02 Oct 3.3 08:58:32 19° ENE 08:58:32 19° ENE 09:00:15 10° E visible
